Location: Laird
(38.4475°N, 100.0546°W)
Time: 13:08:39
(UTC+00:00)

Daily predictions for brighter satellites

Satellite Brightness Start Highest point End
(mag) Time Altitude Azimuth Time Altitude Azimuth Time Altitude Azimuth
Cosmos 1315 Rocket 3.3 12:01:52 10° S 12:05:41 59° E 12:09:32 10° NNE
Haruka 4.4 12:04:47 26° SW 12:07:29 44° S 12:23:05 10° ESE
Lacrosse 4 Rocket 3.4 12:11:22 15° NNW 12:11:22 15° NNW 12:12:36 10° N
ATLAS 5 CENTAUR R/B 2.0 12:12:26 46° WSW 12:12:46 48° SW 12:19:08 10° SSE
Nadezhda 4 Rocket 4.2 12:07:28 10° NNW 12:13:14 45° W 12:19:00 10° SSW
YAOGAN 6 3.5 12:10:23 10° NNE 12:14:00 51° E 12:17:35 10° S
Cosmos 1346 Rocket 3.0 12:10:28 10° N 12:14:27 73° E 12:18:25 10° SSE
FALCON 9 DEB 4.4 12:16:17 25° N 12:16:17 25° N 12:18:11 10° NNE
ERBS 2.3 12:16:23 56° NW 12:16:23 56° NW 12:19:33 10° NE
Cosmos 1606 Rocket 3.8 12:12:18 10° S 12:16:33 68° E 12:20:52 10° NNE
Cosmos 1340 4.0 12:18:17 24° SW 12:18:17 24° SW 12:20:10 10° SSW
BREEZE-M (TANK) 2.3 12:18:06 36° NE 12:18:06 36° NE 12:19:52 10° ESE
ATLAS 3B R/B 4.5 12:13:13 10° S 12:18:50 31° ESE 12:24:31 10° NE
USA 238 DEB 3.9 12:19:47 21° WSW 12:23:50 45° NW 12:30:22 10° NNE
USA 238 3.9 12:19:50 21° WSW 12:23:56 45° NW 12:30:29 10° NNE
Cosmos 1626 Rocket 4.3 12:24:36 30° W 12:24:36 30° W 12:28:17 10° SSW
Meteor 1-11 4.1 12:22:58 10° NNW 12:28:33 73° W 12:34:06 10° S
Cosmos 1634 Rocket 3.9 12:22:44 10° SSW 12:28:50 64° W 12:35:00 10° N
Cosmos 2150 Rocket 4.1 12:23:55 12° NNW 12:28:53 56° WSW 12:34:11 10° S
Cosmos 2297 3.7 12:25:37 10° NNW 12:31:18 64° WSW 12:36:56 10° S
deb Chang Zheng 4 4.0 12:32:05 10° N 12:35:57 35° WNW 12:39:47 10° SW
Cosmos 1689 Rocket 2.0 12:38:59 10° S 12:41:49 57° W 12:44:41 10° NNW
Cosmos 2098 Rocket 3.1 12:39:02 10° NNW 12:44:09 61° W 12:48:08 10° S
SKYMED 2 4.5 12:41:05 10° SSW 12:44:48 28° W 12:48:32 10° NW
PSLV R/B 3.8 12:42:51 10° N 12:46:54 74° WNW 12:50:58 10° SSW
Cosmos 773 Rocket 4.5 12:42:44 10° S 12:47:55 66° ESE 12:53:05 10° NNE
CZ-2C R/B 2.7 12:45:24 15° WSW 12:48:08 27° SSW 12:51:39 10° SE
TIMED 4.4 12:44:07 10° SSW 12:48:28 74° WNW 12:52:51 10° NNE
SL-4 R/B 4.0 12:47:06 11° NNW 12:48:38 13° N 12:50:41 10° NNE
Cosmos 2026 Rocket 4.2 12:42:36 10° NNW 12:48:46 53° W 12:54:55 10° SSW
Cosmos 1758 Rocket 4.0 12:46:55 10° NNW 12:51:05 39° W 12:55:11 10° SSW
Cosmos 2084 Rocket 4.5 12:48:32 17° WNW 12:51:06 29° WSW 12:55:02 10° S
Envisat 3.0 12:46:53 10° N 12:51:54 59° WNW 12:56:52 10° SSW
Cosmos 1603 3.7 12:46:35 10° SSW 12:52:11 89° ESE 12:57:52 10° NNE
BREEZE-M DEB (TANK) 2.5 12:47:44 10° WSW 12:52:30 53° NW 12:54:43 10° NE
ERS-2 3.0 12:50:06 10° SSW 12:53:17 28° W 12:56:28 10° NW
Cosmos 1125 Rocket 3.9 12:49:19 10° NNW 12:54:21 44° WSW 12:59:22 10° S
Cosmos 1726 Rocket 3.7 12:56:10 10° SSW 13:00:18 46° W 13:04:29 10° N
Atlas Centaur 2 4.2 12:56:32 10° WSW 13:02:39 28° SSW 13:09:27 10° SE
In-Cosmos 22 Rocket 4.1 12:57:36 10° N 13:03:02 88° W 13:08:21 10° S
Cosmos 2058 Rocket 3.0 13:01:22 10° SSW 13:05:44 71° W 13:10:11 10° N
CZ-2C R/B 2.7 13:01:53 10° SSE 13:07:08 85° ENE 13:12:32 10° NNW
CZ-4B DEB 4.2 13:01:51 10° N 13:07:22 66° WNW 13:12:50 10° SSW
Cosmos 1939 Rocket 4.3 13:04:11 10° NNE 13:07:51 40° E 13:11:29 10° S
Cosmos 1943 Rocket 2.5 13:02:47 10° NW 13:08:14 48° WSW 13:13:37 10° S
H-2A R/B 4.1 13:08:54 10° NNW 13:11:27 18° WNW 13:14:01 10° WSW
Meteor 2-10 Rocket 3.8 13:06:11 10° SSW 13:12:00 78° W 13:17:47 10° N
Cosmos 1825 3.6 13:09:27 10° N 13:13:02 41° E 13:16:36 10° SSE
Cosmos 1455 2.2 13:09:27 10° S 13:13:10 84° E 13:16:56 10° N
CZ-4B R/B 4.5 13:12:45 10° NW 13:14:27 13° WNW 13:16:10 10° W
Cosmos 2263 4.4 13:09:40 10° NNW 13:15:22 78° ENE 13:21:05 10° SSE
H-2A R/B 2.7 13:13:22 10° N 13:17:51 64° WNW 13:22:16 10° SSW
MOS 1-B 4.4 13:12:35 10° N 13:18:17 64° WNW 13:23:58 10° SSW
Cosmos 1184 Rocket 4.1 13:15:18 10° N 13:18:26 44° ENE 13:21:34 10° SSE
Cosmos 1300 4.5 13:20:52 10° W 13:22:36 13° WNW 13:24:20 10° NW
Cosmos 2369 Rocket 2.2 13:18:23 10° NNW 13:23:54 64° WSW 13:29:24 10° S
Cosmos 1655 Rocket 4.0 13:18:23 10° N 13:24:38 74° W 13:30:56 10° S
